This is the latest recevied weather packets stored in our database for station/object WA4TPR. If no packets are shown the sender has not sent any weather packets the latest 10 day(s).
| Time | Temp. | Humidity | Pressure | Rain* | Wind** | Luminosity | Snow |
|---|---|---|---|---|---|---|---|
| 1777757617 | 30° C | 66% | 1014.2 hPa | 0 mm | - | 133 W/m² | - |
| 1777757316 | 30° C | 66% | 1014 hPa | 0 mm | - | 136 W/m² | - |
| 1777757014 | 30° C | 65% | 1014 hPa | 0 mm | - | 140 W/m² | - |
| 1777756711 | 30° C | 65% | 1014.1 hPa | 0 mm | - | 128 W/m² | - |
| 1777756406 | 30.56° C | 64% | 1014 hPa | 0 mm | - | 129 W/m² | - |
| 1777756104 | 30.56° C | 63% | 1014 hPa | 0 mm | - | 129 W/m² | - |
| 1777755801 | 30.56° C | 62% | 1014 hPa | 0 mm | - | 130 W/m² | - |
| 1777755498 | 30.56° C | 61% | 1013.9 hPa | 0 mm | - | 153 W/m² | - |
| 1777755194 | 31.11° C | 60% | 1014.1 hPa | 0 mm | - | 196 W/m² | - |
| 1777754891 | 31.11° C | 58% | 1014.1 hPa | 0 mm | - | 226 W/m² | - |
| 1777754589 | 31.11° C | 58% | 1013.8 hPa | 0 mm | - | 283 W/m² | - |
| 1777754286 | 31.11° C | 56% | 1013.8 hPa | 0 mm | - | 268 W/m² | - |
| 1777753984 | 31.67° C | 57% | 1014 hPa | 0 mm | - | 272 W/m² | - |
| 1777753683 | 31.67° C | 58% | 1014.1 hPa | 0 mm | - | 428 W/m² | - |
| 1777753381 | 31.67° C | 58% | 1014 hPa | 0 mm | - | 311 W/m² | - |
| 1777753079 | 31.67° C | 57% | 1013.8 hPa | 0 mm | - | 345 W/m² | - |
| 1777752775 | 31.67° C | 55% | 1013.9 hPa | 0 mm | - | 481 W/m² | - |
| 1777752471 | 31.67° C | 56% | 1014 hPa | 0 mm | - | 374 W/m² | - |
| 1777752167 | 31.67° C | 55% | 1013.8 hPa | 0 mm | - | 397 W/m² | - |
| 1777751866 | 31.67° C | 54% | 1013.9 hPa | 0 mm | - | 426 W/m² | - |
| 1777751562 | 32.22° C | 53% | 1014 hPa | 0 mm | - | 359 W/m² | - |
| 1777751258 | 32.22° C | 53% | 1014 hPa | 0 mm | - | 461 W/m² | - |
| 1777750956 | 32.22° C | 53% | 1014.2 hPa | 0 mm | - | 428 W/m² | - |
| 1777750651 | 32.22° C | 53% | 1014.2 hPa | 0 mm | - | 568 W/m² | - |
| 1777750349 | 32.22° C | 55% | 1014.2 hPa | 0 mm | - | 593 W/m² | - |
* Rain latest hour (hover to see other rain measurements)
** Current wind speed in m/s (hover to see current wind gust speed)